Regional Weather Roundup
Issued by NWS Cleveland, OH

Home | Current Version | Previous Version | Graphics & Text | Print | Product List | Glossary On
Versions: 1 2 3 4 5 6 7 8 9 10 11 12 13 14 15 16 17 18 19 20 21 22 23 24 25 26 27 28 29 30 31 32 33 34 35 36 37 38 39 40 41 42 43 44 45 46 47 48 49 50
178
ASUS41 KCLE 202200
RWRCLE
OHIO REGIONAL WEATHER ROUNDUP
NATIONAL WEATHER SERVICE WILMINGTON, OH
500 PM EST MON FEB 20 2017

NOTE: "FAIR" INDICATES FEW OR NO CLOUDS BELOW 12,000 FEET WITH NO
SIGNIFICANT WEATHER AND/OR OBSTRUCTIONS TO VISIBILITY.

OHZ001>008-015>018-024>027-034-035-043-044-202300-
   NORTHWEST OHIO

CITY           SKY/WX    TMP DP  RH WIND       PRES   REMARKS
DEFIANCE       NOT AVBL
FINDLAY        FAIR      63  35  35 SE9       30.14F
TOLEDO EXPRESS FAIR      48  34  58 E15       30.19S
TOLEDO EXEC    FAIR      47  33  58 E14G21    30.21F
LIMA           FAIR      62  42  47 E8        30.14S
$$

OHZ009>014-019>023-028>033-038-089-202300-
   NORTHEAST OHIO

CITY           SKY/WX    TMP DP  RH WIND       PRES   REMARKS
CLE-HOPKINS    CLOUDY    47  32  56 N9        30.24F
CLE-LAKEFRONT  FAIR      38  34  85 NE14      30.21F
CUY CO. ARPT   PTSUNNY   52  37  58 NE6       30.22S
LORAIN-ELYRIA  FAIR      47  32  56 NE8       30.22S
ASHTABULA      FAIR      46  32  58 N7        30.26R
AKRON-CANTON   PTSUNNY   59  32  36 E6        30.21S
WOOSTER        NOT AVBL
MANSFIELD      FAIR      59  36  42 E7        30.19F
YOUNGSTOWN     PTSUNNY   56  31  38 E3        30.23S
$$

OHZ042-051>053-060>062-070>072-077>081-202300-
  SOUTHWEST OHIO

CITY           SKY/WX    TMP DP  RH WIND       PRES   REMARKS
CINC-COVINGTON CLOUDY    63  48  58 E7        30.11S
CINC-LUNKEN    FAIR      65  47  52 E6        30.12F
HAMILTON       FAIR      66  44  45 SE5       30.12F
DAYTON         NOT AVBL
WRIGHT-PAT AFB FAIR      65  37  35 E12       30.12F
DAYTON GENERAL FAIR      64  38  38 E10       30.11F
WILMINGTON     FAIR      62  41  46 E10       30.13F
$$

OHZ036-037-039>041-045>050-054>059-063>069-073>076-082>088-202300-
  CENTRAL AND SOUTHEAST OHIO

CITY           SKY/WX    TMP DP  RH WIND       PRES   REMARKS
COLUMBUS       CLOUDY    63  37  38 E9        30.16F
OSU AIRPORT    FAIR      61  38  42 E9        30.15F
BOLTON FIELD   SUNNY     61  45  55 E6        30.17F
RICKENBACK AFB NOT AVBL
NEWARK         FAIR      59  42  53 NE5       30.17F
MARION         FAIR      62  35  36 S10       30.17F
LANCASTER      FAIR      62  45  53 E8        30.17F
ZANESVILLE     FAIR      60  42  51 NE6       30.19S
NEW PHILLY     FAIR      61  39  44 E5        30.20F
$$




USA.gov is the U.S. government's official web portal to all federal, state and local government web resources and services.